owner,sensor,date,latitude,longitude,air_temperature,qcFlag 
TABS,ioos:station:TABS:X:1,2017-04-08T09:30:00Z,27.0660,-96.3383,24.1,11144222 
TABS,ioos:station:TABS:X:1,2017-04-08T10:00:00Z,27.0660,-96.3383,24.1,11144222 
TABS,ioos:station:TABS:X:1,2017-04-08T10:30:00Z,27.0660,-96.3383,24.3,11144222 
TABS,ioos:station:TABS:X:1,2017-04-08T11:00:00Z,27.0660,-96.3383,24.3,11144222 
TABS,ioos:station:TABS:X:1,2017-04-08T11:30:00Z,27.0660,-96.3383,24.3,11144222 
TABS,ioos:station:TABS:X:1,2017-04-08T12:00:00Z,27.0660,-96.3383,24.6,11144222 
TABS,ioos:station:TABS:X:1,2017-04-08T12:30:00Z,27.0660,-96.3383,24.3,11144222 
TABS,ioos:station:TABS:X:1,2017-04-08T13:00:00Z,27.0660,-96.3383,24.8,11144222 
TABS,ioos:station:TABS:X:1,2017-04-08T13:30:00Z,27.0660,-96.3383,24.8,11144222 
TABS,ioos:station:TABS:X:1,2017-04-08T14:00:00Z,27.0660,-96.3383,24.6,11144222 
TABS,ioos:station:TABS:X:1,2017-04-08T14:30:00Z,27.0660,-96.3383,24.8,11144222 
TABS,ioos:station:TABS:X:1,2017-04-08T15:00:00Z,27.0660,-96.3383,24.6,11144222 
TABS,ioos:station:TABS:X:1,2017-04-08T15:30:00Z,27.0660,-96.3383,24.6,11144222 
TABS,ioos:station:TABS:X:1,2017-04-08T16:00:00Z,27.0660,-96.3383,24.8,11144222 
TABS,ioos:station:TABS:X:1,2017-04-08T16:30:00Z,27.0660,-96.3383,24.6,11144222 
TABS,ioos:station:TABS:X:1,2017-04-08T17:00:00Z,27.0660,-96.3383,24.6,11144222 
TABS,ioos:station:TABS:X:1,2017-04-08T17:30:00Z,27.0660,-96.3383,24.6,11144222 
TABS,ioos:station:TABS:X:1,2017-04-08T18:00:00Z,27.0660,-96.3383,24.6,11144222 
TABS,ioos:station:TABS:X:1,2017-04-08T18:30:00Z,27.0660,-96.3383,24.8,11144222 
TABS,ioos:station:TABS:X:1,2017-04-08T19:00:00Z,27.0660,-96.3383,24.6,11144222 
TABS,ioos:station:TABS:X:1,2017-04-08T19:30:00Z,27.0660,-96.3383,24.8,11144222 
TABS,ioos:station:TABS:X:1,2017-04-08T20:00:00Z,27.0660,-96.3383,24.6,11144222 
TABS,ioos:station:TABS:X:1,2017-04-08T20:30:00Z,27.0660,-96.3383,24.8,11144222 
TABS,ioos:station:TABS:X:1,2017-04-08T21:00:00Z,27.0660,-96.3383,24.8,11144222 
TABS,ioos:station:TABS:X:1,2017-04-08T21:30:00Z,27.0660,-96.3383,24.8,11144222 
TABS,ioos:station:TABS:X:1,2017-04-08T22:00:00Z,27.0660,-96.3383,24.6,11144222 
TABS,ioos:station:TABS:X:1,2017-04-08T22:30:00Z,27.0660,-96.3383,24.8,11144222 
TABS,ioos:station:TABS:X:1,2017-04-08T23:00:00Z,27.0660,-96.3383,24.8,11144222 
TABS,ioos:station:TABS:X:1,2017-04-08T23:30:00Z,27.0660,-96.3383,24.6,11144222 
TABS,ioos:station:TABS:X:1,2017-04-09T00:00:00Z,27.0660,-96.3383,24.6,11144222 
TABS,ioos:station:TABS:X:1,2017-04-09T00:30:00Z,27.0660,-96.3383,24.6,11144222 
TABS,ioos:station:TABS:X:1,2017-04-09T01:00:00Z,27.0660,-96.3383,24.6,11144222 
TABS,ioos:station:TABS:X:1,2017-04-09T01:30:00Z,27.0660,-96.3383,24.6,11144222 
TABS,ioos:station:TABS:X:1,2017-04-09T02:00:00Z,27.0660,-96.3383,24.6,11144222 
TABS,ioos:station:TABS:X:1,2017-04-09T02:30:00Z,27.0660,-96.3383,24.8,11144222 
TABS,ioos:station:TABS:X:1,2017-04-09T03:00:00Z,27.0660,-96.3383,24.6,11144222 
TABS,ioos:station:TABS:X:1,2017-04-09T03:30:00Z,27.0660,-96.3383,24.3,11144222 
TABS,ioos:station:TABS:X:1,2017-04-09T04:00:00Z,27.0660,-96.3383,24.6,11144222 
TABS,ioos:station:TABS:X:1,2017-04-09T04:30:00Z,27.0660,-96.3383,24.6,11144222 
TABS,ioos:station:TABS:X:1,2017-04-09T05:00:00Z,27.0660,-96.3383,24.6,11144222 
TABS,ioos:station:TABS:X:1,2017-04-09T05:30:00Z,27.0660,-96.3383,24.6,11144222 
TABS,ioos:station:TABS:X:1,2017-04-09T06:00:00Z,27.0660,-96.3383,24.6,11144222 
TABS,ioos:station:TABS:X:1,2017-04-09T06:30:00Z,27.0660,-96.3383,24.6,11144222 
TABS,ioos:station:TABS:X:1,2017-04-09T07:00:00Z,27.0660,-96.3383,24.6,11144222 
TABS,ioos:station:TABS:X:1,2017-04-09T07:30:00Z,27.0660,-96.3383,24.6,11144222 
TABS,ioos:station:TABS:X:1,2017-04-09T08:00:00Z,27.0660,-96.3383,24.3,11144222 
TABS,ioos:station:TABS:X:1,2017-04-09T08:30:00Z,27.0660,-96.3383,24.6,11144222 
TABS,ioos:station:TABS:X:1,2017-04-09T09:00:00Z,27.0660,-96.3383,24.6,11144222 
TABS,ioos:station:TABS:X:1,2017-04-09T09:30:00Z,27.0660,-96.3383,24.6,11144222 
TABS,ioos:station:TABS:X:1,2017-04-09T10:00:00Z,27.0660,-96.3383,24.6,11144222 
TABS,ioos:station:TABS:X:1,2017-04-09T10:30:00Z,27.0660,-96.3383,24.6,11144222 
TABS,ioos:station:TABS:X:1,2017-04-09T11:00:00Z,27.0660,-96.3383,24.8,11144222 
TABS,ioos:station:TABS:X:1,2017-04-09T11:30:00Z,27.0660,-96.3383,24.8,11144222 
TABS,ioos:station:TABS:X:1,2017-04-09T12:00:00Z,27.0660,-96.3383,24.8,11144222 
TABS,ioos:station:TABS:X:1,2017-04-09T12:30:00Z,27.0660,-96.3383,25.3,11144222 
TABS,ioos:station:TABS:X:1,2017-04-09T13:00:00Z,27.0660,-96.3383,25.3,11144222 
TABS,ioos:station:TABS:X:1,2017-04-09T13:30:00Z,27.0660,-96.3383,25.3,11144222 
TABS,ioos:station:TABS:X:1,2017-04-09T14:00:00Z,27.0660,-96.3383,25.3,11144222 
TABS,ioos:station:TABS:X:1,2017-04-09T14:30:00Z,27.0660,-96.3383,25.3,11144222 
TABS,ioos:station:TABS:X:1,2017-04-09T15:00:00Z,27.0660,-96.3383,25.1,11144222 
TABS,ioos:station:TABS:X:1,2017-04-09T15:30:00Z,27.0660,-96.3383,25.3,11144222 
TABS,ioos:station:TABS:X:1,2017-04-09T16:00:00Z,27.0660,-96.3383,25.6,11144222 
TABS,ioos:station:TABS:X:1,2017-04-09T16:30:00Z,27.0660,-96.3383,25.6,11144222 
TABS,ioos:station:TABS:X:1,2017-04-09T17:00:00Z,27.0660,-96.3383,25.1,11144222 
TABS,ioos:station:TABS:X:1,2017-04-09T17:30:00Z,27.0660,-96.3383,25.3,11144222 
TABS,ioos:station:TABS:X:1,2017-04-09T18:00:00Z,27.0660,-96.3383,25.3,11144222 
TABS,ioos:station:TABS:X:1,2017-04-09T18:30:00Z,27.0660,-96.3383,25.1,11144222 
TABS,ioos:station:TABS:X:1,2017-04-09T19:00:00Z,27.0660,-96.3383,25.3,11144222 
TABS,ioos:station:TABS:X:1,2017-04-09T19:30:00Z,27.0660,-96.3383,25.6,11144222 
TABS,ioos:station:TABS:X:1,2017-04-09T20:00:00Z,27.0660,-96.3383,25.3,11144222 
TABS,ioos:station:TABS:X:1,2017-04-09T20:30:00Z,27.0660,-96.3383,25.6,11144222 
TABS,ioos:station:TABS:X:1,2017-04-09T21:00:00Z,27.0660,-96.3383,25.6,11144222 
TABS,ioos:station:TABS:X:1,2017-04-09T21:30:00Z,27.0660,-96.3383,25.6,11144222 
TABS,ioos:station:TABS:X:1,2017-04-09T22:00:00Z,27.0660,-96.3383,25.6,11144222 
TABS,ioos:station:TABS:X:1,2017-04-09T22:30:00Z,27.0660,-96.3383,25.6,11144222 
TABS,ioos:station:TABS:X:1,2017-04-09T23:00:00Z,27.0660,-96.3383,25.3,11144222 
TABS,ioos:station:TABS:X:1,2017-04-09T23:30:00Z,27.0660,-96.3383,25.6,11144222 
TABS,ioos:station:TABS:X:1,2017-04-10T00:00:00Z,27.0660,-96.3383,25.3,11144222 
TABS,ioos:station:TABS:X:1,2017-04-10T00:30:00Z,27.0660,-96.3383,25.6,11144222 
TABS,ioos:station:TABS:X:1,2017-04-10T01:00:00Z,27.0660,-96.3383,25.3,11144222 
TABS,ioos:station:TABS:X:1,2017-04-10T01:30:00Z,27.0660,-96.3383,25.6,11144222 
TABS,ioos:station:TABS:X:1,2017-04-10T02:00:00Z,27.0660,-96.3383,25.3,11144222 
TABS,ioos:station:TABS:X:1,2017-04-10T02:30:00Z,27.0660,-96.3383,25.6,11144222 
TABS,ioos:station:TABS:X:1,2017-04-10T03:00:00Z,27.0660,-96.3383,25.3,11144222 
TABS,ioos:station:TABS:X:1,2017-04-10T03:30:00Z,27.0660,-96.3383,25.3,11144222 
TABS,ioos:station:TABS:X:1,2017-04-10T04:00:00Z,27.0660,-96.3383,25.3,11144222 
TABS,ioos:station:TABS:X:1,2017-04-10T04:30:00Z,27.0660,-96.3383,25.3,11144222 
TABS,ioos:station:TABS:X:1,2017-04-10T05:00:00Z,27.0660,-96.3383,25.3,11144222 
TABS,ioos:station:TABS:X:1,2017-04-10T05:30:00Z,27.0660,-96.3383,25.3,11144222 
TABS,ioos:station:TABS:X:1,2017-04-10T06:00:00Z,27.0660,-96.3383,25.3,11144222 
TABS,ioos:station:TABS:X:1,2017-04-10T06:30:00Z,27.0660,-96.3383,25.6,11144222 
TABS,ioos:station:TABS:X:1,2017-04-10T07:00:00Z,27.0660,-96.3383,25.6,11144222 
TABS,ioos:station:TABS:X:1,2017-04-10T07:30:00Z,27.0660,-96.3383,25.6,11144222 
TABS,ioos:station:TABS:X:1,2017-04-10T08:00:00Z,27.0660,-96.3383,25.3,11144222 
TABS,ioos:station:TABS:X:1,2017-04-10T08:30:00Z,27.0660,-96.3383,25.3,11144222 
TABS,ioos:station:TABS:X:1,2017-04-10T09:00:00Z,27.0660,-96.3383,25.3,11144222 
TABS,ioos:station:TABS:X:1,2017-04-10T09:30:00Z,27.0660,-96.3383,25.3,11144222 
TABS,ioos:station:TABS:X:1,2017-04-10T10:00:00Z,27.0660,-96.3383,25.6,11144222 
TABS,ioos:station:TABS:X:1,2017-04-10T10:30:00Z,27.0660,-96.3383,25.6,11144222 
TABS,ioos:station:TABS:X:1,2017-04-10T11:00:00Z,27.0660,-96.3383,25.6,11144222 
TABS,ioos:station:TABS:X:1,2017-04-10T11:30:00Z,27.0660,-96.3383,25.6,11144222 
TABS,ioos:station:TABS:X:1,2017-04-10T12:00:00Z,27.0660,-96.3383,25.6,11144222 
TABS,ioos:station:TABS:X:1,2017-04-10T12:30:00Z,27.0660,-96.3383,25.6,11144222 
TABS,ioos:station:TABS:X:1,2017-04-10T13:00:00Z,27.0660,-96.3383,26.0,11144222 
TABS,ioos:station:TABS:X:1,2017-04-10T13:30:00Z,27.0660,-96.3383,26.0,11144222 
TABS,ioos:station:TABS:X:1,2017-04-10T14:00:00Z,27.0660,-96.3383,26.0,11144222 
TABS,ioos:station:TABS:X:1,2017-04-10T14:30:00Z,27.0660,-96.3383,26.3,11144222 
TABS,ioos:station:TABS:X:1,2017-04-10T15:00:00Z,27.0660,-96.3383,26.0,11144222 
TABS,ioos:station:TABS:X:1,2017-04-10T15:30:00Z,27.0660,-96.3383,26.0,11144222 
TABS,ioos:station:TABS:X:1,2017-04-10T16:00:00Z,27.0660,-96.3383,26.0,11144222 
TABS,ioos:station:TABS:X:1,2017-04-10T16:30:00Z,27.0660,-96.3383,26.0,11144222 
TABS,ioos:station:TABS:X:1,2017-04-10T17:00:00Z,27.0660,-96.3383,26.0,11144222 
TABS,ioos:station:TABS:X:1,2017-04-10T17:30:00Z,27.0660,-96.3383,25.8,11144222 
TABS,ioos:station:TABS:X:1,2017-04-10T18:00:00Z,27.0660,-96.3383,25.8,11144222 
TABS,ioos:station:TABS:X:1,2017-04-10T18:30:00Z,27.0660,-96.3383,26.0,11144222 
TABS,ioos:station:TABS:X:1,2017-04-10T19:00:00Z,27.0660,-96.3383,25.8,11144222 
TABS,ioos:station:TABS:X:1,2017-04-10T19:30:00Z,27.0660,-96.3383,25.8,11144222 
TABS,ioos:station:TABS:X:1,2017-04-10T20:00:00Z,27.0660,-96.3383,25.8,11144222 
TABS,ioos:station:TABS:X:1,2017-04-10T20:30:00Z,27.0660,-96.3383,26.0,11144222 
TABS,ioos:station:TABS:X:1,2017-04-10T21:00:00Z,27.0660,-96.3383,25.8,11144222 
TABS,ioos:station:TABS:X:1,2017-04-10T21:30:00Z,27.0660,-96.3383,25.8,11144222 
TABS,ioos:station:TABS:X:1,2017-04-10T22:00:00Z,27.0660,-96.3383,25.8,11144222 
TABS,ioos:station:TABS:X:1,2017-04-10T22:30:00Z,27.0660,-96.3383,25.8,11144222 
TABS,ioos:station:TABS:X:1,2017-04-10T23:00:00Z,27.0660,-96.3383,25.8,11144222 
TABS,ioos:station:TABS:X:1,2017-04-10T23:30:00Z,27.0660,-96.3383,25.8,11144222 
TABS,ioos:station:TABS:X:1,2017-04-11T00:00:00Z,27.0660,-96.3383,25.6,11144222 
TABS,ioos:station:TABS:X:1,2017-04-11T00:30:00Z,27.0660,-96.3383,25.8,11144222 
TABS,ioos:station:TABS:X:1,2017-04-11T01:00:00Z,27.0660,-96.3383,25.6,11144222 
TABS,ioos:station:TABS:X:1,2017-04-11T01:30:00Z,27.0660,-96.3383,25.8,11144222 
TABS,ioos:station:TABS:X:1,2017-04-11T02:00:00Z,27.0660,-96.3383,25.8,11144222 
TABS,ioos:station:TABS:X:1,2017-04-11T02:30:00Z,27.0660,-96.3383,25.6,11144222 
TABS,ioos:station:TABS:X:1,2017-04-11T03:00:00Z,27.0660,-96.3383,25.8,11144222 
TABS,ioos:station:TABS:X:1,2017-04-11T03:30:00Z,27.0660,-96.3383,25.8,11144222 
TABS,ioos:station:TABS:X:1,2017-04-11T04:00:00Z,27.0660,-96.3383,25.8,11144222 
TABS,ioos:station:TABS:X:1,2017-04-11T04:30:00Z,27.0660,-96.3383,25.8,11144222 
TABS,ioos:station:TABS:X:1,2017-04-11T05:00:00Z,27.0660,-96.3383,25.8,11144222 
TABS,ioos:station:TABS:X:1,2017-04-11T05:30:00Z,27.0660,-96.3383,25.8,11144222 
TABS,ioos:station:TABS:X:1,2017-04-11T06:00:00Z,27.0660,-96.3383,25.3,11144222 
TABS,ioos:station:TABS:X:1,2017-04-11T06:30:00Z,27.0660,-96.3383,25.6,11144222 
TABS,ioos:station:TABS:X:1,2017-04-11T07:00:00Z,27.0660,-96.3383,25.6,11144222 
TABS,ioos:station:TABS:X:1,2017-04-11T07:30:00Z,27.0660,-96.3383,25.6,11144222 
TABS,ioos:station:TABS:X:1,2017-04-11T08:00:00Z,27.0660,-96.3383,25.6,11144222 
TABS,ioos:station:TABS:X:1,2017-04-11T08:30:00Z,27.0660,-96.3383,25.6,11144222 
TABS,ioos:station:TABS:X:1,2017-04-11T09:00:00Z,27.0660,-96.3383,25.3,11144222 
TABS,ioos:station:TABS:X:1,2017-04-11T09:30:00Z,27.0660,-96.3383,25.6,11144222 
TABS,ioos:station:TABS:X:1,2017-04-11T10:00:00Z,27.0660,-96.3383,25.3,11144222 
TABS,ioos:station:TABS:X:1,2017-04-11T10:30:00Z,27.0660,-96.3383,25.6,11144222 
TABS,ioos:station:TABS:X:1,2017-04-11T11:00:00Z,27.0660,-96.3383,25.3,11144222 
TABS,ioos:station:TABS:X:1,2017-04-11T11:30:00Z,27.0660,-96.3383,25.3,11144222 
TABS,ioos:station:TABS:X:1,2017-04-11T12:00:00Z,27.0660,-96.3383,25.3,11144222 
TABS,ioos:station:TABS:X:1,2017-04-11T12:30:00Z,27.0660,-96.3383,25.6,11144222 
TABS,ioos:station:TABS:X:1,2017-04-11T13:00:00Z,27.0660,-96.3383,25.3,11144222 
TABS,ioos:station:TABS:X:1,2017-04-11T13:30:00Z,27.0660,-96.3383,25.6,11144222 
TABS,ioos:station:TABS:X:1,2017-04-11T14:00:00Z,27.0660,-96.3383,25.6,11144222 
TABS,ioos:station:TABS:X:1,2017-04-11T14:30:00Z,27.0660,-96.3383,25.8,11144222 
TABS,ioos:station:TABS:X:1,2017-04-11T15:00:00Z,27.0660,-96.3383,25.8,11144222 
TABS,ioos:station:TABS:X:1,2017-04-11T15:30:00Z,27.0660,-96.3383,26.0,11144222 
TABS,ioos:station:TABS:X:1,2017-04-11T16:00:00Z,27.0660,-96.3383,26.0,11144222 
TABS,ioos:station:TABS:X:1,2017-04-11T16:30:00Z,27.0660,-96.3383,25.8,11144222 
TABS,ioos:station:TABS:X:1,2017-04-11T17:00:00Z,27.0660,-96.3383,26.0,11144222 
TABS,ioos:station:TABS:X:1,2017-04-11T17:30:00Z,27.0660,-96.3383,25.8,11144222 
TABS,ioos:station:TABS:X:1,2017-04-11T18:00:00Z,27.0660,-96.3383,25.8,11144222 
TABS,ioos:station:TABS:X:1,2017-04-11T18:30:00Z,27.0660,-96.3383,25.8,11144222 
TABS,ioos:station:TABS:X:1,2017-04-11T19:00:00Z,27.0660,-96.3383,25.8,11144222 
TABS,ioos:station:TABS:X:1,2017-04-11T19:30:00Z,27.0660,-96.3383,26.0,11144222 
TABS,ioos:station:TABS:X:1,2017-04-11T20:00:00Z,27.0660,-96.3383,26.0,11144222 
TABS,ioos:station:TABS:X:1,2017-04-11T20:30:00Z,27.0660,-96.3383,26.0,11144222 
TABS,ioos:station:TABS:X:1,2017-04-11T21:00:00Z,27.0660,-96.3383,26.0,11144222 
TABS,ioos:station:TABS:X:1,2017-04-11T21:30:00Z,27.0660,-96.3383,26.3,11144222 
TABS,ioos:station:TABS:X:1,2017-04-11T22:00:00Z,27.0660,-96.3383,25.8,11144222 
TABS,ioos:station:TABS:X:1,2017-04-11T22:30:00Z,27.0660,-96.3383,25.8,11144222 
TABS,ioos:station:TABS:X:1,2017-04-11T23:00:00Z,27.0660,-96.3383,25.8,11144222 
TABS,ioos:station:TABS:X:1,2017-04-11T23:30:00Z,27.0660,-96.3383,25.8,11144222 
TABS,ioos:station:TABS:X:1,2017-04-12T00:00:00Z,27.0660,-96.3383,22.1,11144222 
TABS,ioos:station:TABS:X:1,2017-04-12T00:30:00Z,27.0660,-96.3383,23.1,11144222 
TABS,ioos:station:TABS:X:1,2017-04-12T01:00:00Z,27.0660,-96.3383,23.4,11144222 
TABS,ioos:station:TABS:X:1,2017-04-12T01:30:00Z,27.0660,-96.3383,23.4,11144222 
TABS,ioos:station:TABS:X:1,2017-04-12T02:00:00Z,27.0660,-96.3383,23.6,11144222 
TABS,ioos:station:TABS:X:1,2017-04-12T02:30:00Z,27.0660,-96.3383,23.8,11144222 
TABS,ioos:station:TABS:X:1,2017-04-12T03:00:00Z,27.0660,-96.3383,23.8,11144222 
TABS,ioos:station:TABS:X:1,2017-04-12T03:30:00Z,27.0660,-96.3383,24.1,11144222 
TABS,ioos:station:TABS:X:1,2017-04-12T04:00:00Z,27.0660,-96.3383,24.3,11144222 
TABS,ioos:station:TABS:X:1,2017-04-12T04:30:00Z,27.0660,-96.3383,24.8,11144222 
TABS,ioos:station:TABS:X:1,2017-04-12T05:00:00Z,27.0660,-96.3383,25.1,11144222 
TABS,ioos:station:TABS:X:1,2017-04-12T05:30:00Z,27.0660,-96.3383,25.3,11144222 
TABS,ioos:station:TABS:X:1,2017-04-12T06:00:00Z,27.0660,-96.3383,25.1,11144222 
TABS,ioos:station:TABS:X:1,2017-04-12T06:30:00Z,27.0660,-96.3383,25.1,11144222 
TABS,ioos:station:TABS:X:1,2017-04-12T07:00:00Z,27.0660,-96.3383,25.3,11144222 
TABS,ioos:station:TABS:X:1,2017-04-12T07:30:00Z,27.0660,-96.3383,25.3,11144222 
TABS,ioos:station:TABS:X:1,2017-04-12T08:00:00Z,27.0660,-96.3383,25.1,11144222 
TABS,ioos:station:TABS:X:1,2017-04-12T08:30:00Z,27.0660,-96.3383,25.3,11144222 
TABS,ioos:station:TABS:X:1,2017-04-12T09:00:00Z,27.0660,-96.3383,25.1,11144222 
TABS,ioos:station:TABS:X:1,2017-04-12T09:30:00Z,27.0660,-96.3383,25.3,11144222 
TABS,ioos:station:TABS:X:1,2017-04-12T10:00:00Z,27.0660,-96.3383,25.1,11144222 
TABS,ioos:station:TABS:X:1,2017-04-12T10:30:00Z,27.0660,-96.3383,25.1,11144222 
TABS,ioos:station:TABS:X:1,2017-04-12T11:00:00Z,27.0660,-96.3383,25.1,11144222 
TABS,ioos:station:TABS:X:1,2017-04-12T11:30:00Z,27.0660,-96.3383,25.1,11144222 
TABS,ioos:station:TABS:X:1,2017-04-12T12:00:00Z,27.0660,-96.3383,25.1,11144222 
TABS,ioos:station:TABS:X:1,2017-04-12T12:30:00Z,27.0660,-96.3383,25.1,11144222 
TABS,ioos:station:TABS:X:1,2017-04-12T13:00:00Z,27.0660,-96.3383,25.3,11144222 
TABS,ioos:station:TABS:X:1,2017-04-12T13:30:00Z,27.0660,-96.3383,25.6,11144222 
TABS,ioos:station:TABS:X:1,2017-04-12T14:00:00Z,27.0660,-96.3383,25.6,11144222 
TABS,ioos:station:TABS:X:1,2017-04-12T14:30:00Z,27.0660,-96.3383,25.6,11144222 
TABS,ioos:station:TABS:X:1,2017-04-12T15:00:00Z,27.0660,-96.3383,25.8,11144222 
TABS,ioos:station:TABS:X:1,2017-04-12T15:30:00Z,27.0660,-96.3383,25.8,11144222 
TABS,ioos:station:TABS:X:1,2017-04-12T16:00:00Z,27.0660,-96.3383,26.0,11144222 
TABS,ioos:station:TABS:X:1,2017-04-12T16:30:00Z,27.0660,-96.3383,26.0,11144222 
TABS,ioos:station:TABS:X:1,2017-04-12T17:00:00Z,27.0660,-96.3383,26.0,11144222 
TABS,ioos:station:TABS:X:1,2017-04-12T17:30:00Z,27.0660,-96.3383,26.0,11144222 
TABS,ioos:station:TABS:X:1,2017-04-12T18:00:00Z,27.0660,-96.3383,25.8,11144222 
TABS,ioos:station:TABS:X:1,2017-04-12T18:30:00Z,27.0660,-96.3383,25.8,11144222 
TABS,ioos:station:TABS:X:1,2017-04-12T19:00:00Z,27.0660,-96.3383,26.0,11144222 
TABS,ioos:station:TABS:X:1,2017-04-12T19:30:00Z,27.0660,-96.3383,26.0,11144222 
TABS,ioos:station:TABS:X:1,2017-04-12T20:00:00Z,27.0660,-96.3383,25.8,11144222 
TABS,ioos:station:TABS:X:1,2017-04-12T20:30:00Z,27.0660,-96.3383,26.0,11144222 
TABS,ioos:station:TABS:X:1,2017-04-12T21:00:00Z,27.0660,-96.3383,26.0,11144222 
TABS,ioos:station:TABS:X:1,2017-04-12T21:30:00Z,27.0660,-96.3383,26.0,11144222 
TABS,ioos:station:TABS:X:1,2017-04-12T22:00:00Z,27.0660,-96.3383,26.0,11144222 
TABS,ioos:station:TABS:X:1,2017-04-12T22:30:00Z,27.0660,-96.3383,26.0,11144222 
TABS,ioos:station:TABS:X:1,2017-04-12T23:00:00Z,27.0660,-96.3383,25.8,11144222 
TABS,ioos:station:TABS:X:1,2017-04-12T23:30:00Z,27.0660,-96.3383,25.8,11144222 
TABS,ioos:station:TABS:X:1,2017-04-13T00:00:00Z,27.0660,-96.3383,25.6,11144222 
TABS,ioos:station:TABS:X:1,2017-04-13T00:30:00Z,27.0660,-96.3383,25.8,11144222 
TABS,ioos:station:TABS:X:1,2017-04-13T01:00:00Z,27.0660,-96.3383,25.8,11144222 
TABS,ioos:station:TABS:X:1,2017-04-13T01:30:00Z,27.0660,-96.3383,25.8,11144222 
TABS,ioos:station:TABS:X:1,2017-04-13T02:00:00Z,27.0660,-96.3383,25.6,11144222 
TABS,ioos:station:TABS:X:1,2017-04-13T02:30:00Z,27.0660,-96.3383,25.8,11144222 
TABS,ioos:station:TABS:X:1,2017-04-13T03:00:00Z,27.0660,-96.3383,25.6,11144222 
TABS,ioos:station:TABS:X:1,2017-04-13T03:30:00Z,27.0660,-96.3383,25.6,11144222 
TABS,ioos:station:TABS:X:1,2017-04-13T04:00:00Z,27.0660,-96.3383,25.6,11144222 
TABS,ioos:station:TABS:X:1,2017-04-13T04:30:00Z,27.0660,-96.3383,25.6,11144222 
TABS,ioos:station:TABS:X:1,2017-04-13T05:00:00Z,27.0660,-96.3383,25.6,11144222 
TABS,ioos:station:TABS:X:1,2017-04-13T05:30:00Z,27.0660,-96.3383,25.6,11144222 
TABS,ioos:station:TABS:X:1,2017-04-13T06:00:00Z,27.0660,-96.3383,25.3,11144222 
TABS,ioos:station:TABS:X:1,2017-04-13T06:30:00Z,27.0660,-96.3383,25.6,11144222 
TABS,ioos:station:TABS:X:1,2017-04-13T07:00:00Z,27.0660,-96.3383,25.3,11144222 
TABS,ioos:station:TABS:X:1,2017-04-13T07:30:00Z,27.0660,-96.3383,25.3,11144222 
TABS,ioos:station:TABS:X:1,2017-04-13T08:00:00Z,27.0660,-96.3383,25.3,11144222 
TABS,ioos:station:TABS:X:1,2017-04-13T08:30:00Z,27.0660,-96.3383,25.6,11144222 
TABS,ioos:station:TABS:X:1,2017-04-13T09:00:00Z,27.0660,-96.3383,25.3,11144222 
TABS,ioos:station:TABS:X:1,2017-04-13T09:30:00Z,27.0660,-96.3383,25.6,11144222 
TABS,ioos:station:TABS:X:1,2017-04-13T10:00:00Z,27.0660,-96.3383,25.6,11144222 
TABS,ioos:station:TABS:X:1,2017-04-13T10:30:00Z,27.0660,-96.3383,25.3,11144222 
TABS,ioos:station:TABS:X:1,2017-04-13T11:00:00Z,27.0660,-96.3383,25.3,11144222 
TABS,ioos:station:TABS:X:1,2017-04-13T11:30:00Z,27.0660,-96.3383,25.6,11144222 
TABS,ioos:station:TABS:X:1,2017-04-13T12:00:00Z,27.0660,-96.3383,25.6,11144222 
TABS,ioos:station:TABS:X:1,2017-04-13T12:30:00Z,27.0660,-96.3383,25.8,11144222 
TABS,ioos:station:TABS:X:1,2017-04-13T13:00:00Z,27.0660,-96.3383,26.0,11144222 
TABS,ioos:station:TABS:X:1,2017-04-13T13:30:00Z,27.0660,-96.3383,26.3,11144222 
TABS,ioos:station:TABS:X:1,2017-04-13T14:00:00Z,27.0660,-96.3383,26.0,11144222 
TABS,ioos:station:TABS:X:1,2017-04-13T14:30:00Z,27.0660,-96.3383,26.0,11144222 
TABS,ioos:station:TABS:X:1,2017-04-13T15:00:00Z,27.0660,-96.3383,25.6,11144222 
TABS,ioos:station:TABS:X:1,2017-04-13T15:30:00Z,27.0660,-96.3383,25.8,11144222 
TABS,ioos:station:TABS:X:1,2017-04-13T16:00:00Z,27.0660,-96.3383,25.8,11144222 
TABS,ioos:station:TABS:X:1,2017-04-13T16:30:00Z,27.0660,-96.3383,25.8,11144222 
TABS,ioos:station:TABS:X:1,2017-04-13T17:00:00Z,27.0660,-96.3383,25.8,11144222 
TABS,ioos:station:TABS:X:1,2017-04-13T17:30:00Z,27.0660,-96.3383,25.6,11144222 
TABS,ioos:station:TABS:X:1,2017-04-13T18:00:00Z,27.0660,-96.3383,25.6,11144222 
TABS,ioos:station:TABS:X:1,2017-04-13T18:30:00Z,27.0660,-96.3383,25.8,11144222 
TABS,ioos:station:TABS:X:1,2017-04-13T19:00:00Z,27.0660,-96.3383,25.3,11144222 
TABS,ioos:station:TABS:X:1,2017-04-13T19:30:00Z,27.0660,-96.3383,25.3,11144222 
TABS,ioos:station:TABS:X:1,2017-04-13T20:00:00Z,27.0660,-96.3383,25.3,11144222 
TABS,ioos:station:TABS:X:1,2017-04-13T20:30:00Z,27.0660,-96.3383,25.6,11144222 
TABS,ioos:station:TABS:X:1,2017-04-13T21:00:00Z,27.0660,-96.3383,25.6,11144222 
TABS,ioos:station:TABS:X:1,2017-04-13T21:30:00Z,27.0660,-96.3383,25.3,11144222 
TABS,ioos:station:TABS:X:1,2017-04-13T22:00:00Z,27.0660,-96.3383,25.3,11144222 
TABS,ioos:station:TABS:X:1,2017-04-13T22:30:00Z,27.0660,-96.3383,25.6,11144222 
TABS,ioos:station:TABS:X:1,2017-04-13T23:00:00Z,27.0660,-96.3383,25.3,11144222 
TABS,ioos:station:TABS:X:1,2017-04-13T23:30:00Z,27.0660,-96.3383,25.3,11144222 
TABS,ioos:station:TABS:X:1,2017-04-14T00:00:00Z,27.0660,-96.3383,25.1,11144222 
TABS,ioos:station:TABS:X:1,2017-04-14T00:30:00Z,27.0660,-96.3383,25.1,11144222 
TABS,ioos:station:TABS:X:1,2017-04-14T01:00:00Z,27.0660,-96.3383,25.1,11144222 
TABS,ioos:station:TABS:X:1,2017-04-14T01:30:00Z,27.0660,-96.3383,25.1,11144222 
TABS,ioos:station:TABS:X:1,2017-04-14T02:00:00Z,27.0660,-96.3383,24.8,11144222 
TABS,ioos:station:TABS:X:1,2017-04-14T02:30:00Z,27.0660,-96.3383,25.1,11144222 
TABS,ioos:station:TABS:X:1,2017-04-14T03:00:00Z,27.0660,-96.3383,25.1,11144222 
TABS,ioos:station:TABS:X:1,2017-04-14T03:30:00Z,27.0660,-96.3383,25.1,11144222 
TABS,ioos:station:TABS:X:1,2017-04-14T04:00:00Z,27.0660,-96.3383,24.8,11144222 
TABS,ioos:station:TABS:X:1,2017-04-14T04:30:00Z,27.0660,-96.3383,24.8,11144222 
TABS,ioos:station:TABS:X:1,2017-04-14T05:00:00Z,27.0660,-96.3383,24.8,11144222 
TABS,ioos:station:TABS:X:1,2017-04-14T05:30:00Z,27.0660,-96.3383,25.1,11144222 
TABS,ioos:station:TABS:X:1,2017-04-14T06:00:00Z,27.0660,-96.3383,25.1,11144222 
TABS,ioos:station:TABS:X:1,2017-04-14T06:30:00Z,27.0660,-96.3383,24.8,11144222 
TABS,ioos:station:TABS:X:1,2017-04-14T07:00:00Z,27.0660,-96.3383,25.1,11144222 
TABS,ioos:station:TABS:X:1,2017-04-14T07:30:00Z,27.0660,-96.3383,25.1,11144222 
TABS,ioos:station:TABS:X:1,2017-04-14T08:00:00Z,27.0660,-96.3383,24.8,11144222 
TABS,ioos:station:TABS:X:1,2017-04-14T08:30:00Z,27.0660,-96.3383,25.1,11144222 
TABS,ioos:station:TABS:X:1,2017-04-14T09:00:00Z,27.0660,-96.3383,25.1,11144222 
TABS,ioos:station:TABS:X:1,2017-04-14T09:30:00Z,27.0660,-96.3383,24.8,11144222 
TABS,ioos:station:TABS:X:1,2017-04-14T10:00:00Z,27.0660,-96.3383,24.8,11144222 
TABS,ioos:station:TABS:X:1,2017-04-14T10:30:00Z,27.0660,-96.3383,25.1,11144222 
TABS,ioos:station:TABS:X:1,2017-04-14T11:00:00Z,27.0660,-96.3383,24.8,11144222 
TABS,ioos:station:TABS:X:1,2017-04-14T11:30:00Z,27.0660,-96.3383,25.1,11144222 
TABS,ioos:station:TABS:X:1,2017-04-14T12:00:00Z,27.0660,-96.3383,25.3,11144222 
TABS,ioos:station:TABS:X:1,2017-04-14T12:30:00Z,27.0660,-96.3383,25.8,11144222 
TABS,ioos:station:TABS:X:1,2017-04-14T13:00:00Z,27.0660,-96.3383,25.8,11144222 
TABS,ioos:station:TABS:X:1,2017-04-14T13:30:00Z,27.0660,-96.3383,25.8,11144222 
TABS,ioos:station:TABS:X:1,2017-04-14T14:00:00Z,27.0660,-96.3383,25.8,11144222 
TABS,ioos:station:TABS:X:1,2017-04-14T14:30:00Z,27.0660,-96.3383,26.0,11144222 